Location: S�tio Afonso Gruber
(26.1760°S, 49.5250°W)
Time: 08:41:20
(UTC+00:00)

Cosmos 1844 Rocket - Pass Details

Date: 07 October 2020
Orbit: 823 x 846 km, 71.0° (Epoch: 22 October)

Event Time Altitude Azimuth Distance (km) Brightness Sun altitude
Exits shadow 06:35:11 34° 36° (NE) 1,355 3.8 -30.1°
Maximum altitude 06:36:50 43° 76° (ENE) 1,175 3.7 -29.8°
Drops below altitude 10° 06:42:11 10° 145° (SE) 2,474 5.8 -28.7°
Sets 06:44:44 0° 152° (SSE) 3,411 6.6 -28.2°
